sat.trackr.live / text

‹ back to catalog

STARLINK-3196

NORAD 49768 · 2021-115AW

PAYLOAD ACTIVE UNKNOWN

§ Identity

Operator
Country
US
Launch date
2021-12-02
Launch site
AFETR
Launch vehicle
Mass (kg)
RCS (m²)

Purposes: comms

External: N2YO · Heavens-Above · Gunter

§ Orbital elements

Epoch: 2026-09-19T18:35:31.786944Z

Period
93.85 min
Inclination
53.1613°
Eccentricity
0.0001264
Mean motion
15.34387991 rev/d
Perigee alt
461.9 km
Apogee alt
463.6 km
Semi-major
6,840.9 km
B*
-1.1660e-5
RAAN
332.7711°
Arg perigee
88.0045°
Mean anomaly
272.1102°
Rev number
26,518

§ Raw data

STARLINK-31961 49768U 21115AW  26262.77467346 -.00000770  00000+0 -11660-4 0  99992 49768  53.1613 332.7711 0001264  88.0045 272.1102 15.34387991265184

JSON: /api/v1/satellites/49768 · /tle

For live sub-satellite position, see the globe view (requires WebGL).

§ Visibility from observer

Set your observer location to see the next 7 days of passes ≥ 10°. The values pass through the URL so the page stays shareable.

No JS? Fill the form by hand. The geolocation button needs JavaScript.